| time (UTC) | temp C | wind direction | speed KPH | gust KPH | rain 1hr cm | rain 24hr cm | rain mn cm | humidity % | barometer mb |
| 20260507065842 | 7 | 93 | 1.6 | 6.4 | 0.00 | 0.00 | 0.00 | 57 | 1016.0 |
| 20260507064942 | 7 | 0 | 0.0 | 4.8 | 0.00 | 0.00 | 0.00 | 58 | 1016.0 |
| 20260507064043 | 7 | 0 | 0.0 | 4.8 | 0.00 | 0.00 | 0.00 | 60 | 1016.0 |
| 20260507063353 | 6 | 0 | 0.0 | 4.8 | 0.00 | 0.00 | 0.00 | 63 | 1016.0 |
| 20260507062243 | 6 | 0 | 0.0 | 4.8 | 0.00 | 0.00 | 0.00 | 63 | 1016.1 |
| 20260507061342 | 6 | 0 | 0.0 | 4.8 | 0.00 | 0.00 | 0.00 | 65 | 1016.0 |
| 20260507060442 | 6 | 0 | 0.0 | 4.8 | 0.00 | 0.00 | 0.00 | 66 | 1016.0 |
| 20260507055752 | 5 | 60 | 1.6 | 6.4 | 0.00 | 0.00 | 0.00 | 67 | 1016.0 |
| 20260507054642 | 5 | 65 | 1.6 | 6.4 | 0.00 | 0.00 | 0.00 | 68 | 1015.9 |
| 20260507053742 | 4 | 0 | 0.0 | 3.2 | 0.00 | 0.00 | 0.00 | 71 | 1016.0 |
| 20260507052842 | 3 | 0 | 0.0 | 4.8 | 0.00 | 0.00 | 0.00 | 73 | 1016.0 |
| 20260507051942 | 2 | 0 | 0.0 | 3.2 | 0.00 | 0.00 | 0.00 | 78 | 1016.0 |
| 20260507051042 | 2 | 0 | 0.0 | 0.0 | 0.00 | 0.00 | 0.00 | 82 | 1016.1 |
| 20260507050142 | 1 | 0 | 0.0 | 0.0 | 0.00 | 0.00 | 0.00 | 85 | 1016.1 |
| 20260507045242 | 1 | 0 | 0.0 | 0.0 | 0.00 | 0.00 | 0.00 | 87 | 1016.1 |
| 20260507044556 | 0 | 0 | 0.0 | 0.0 | 0.00 | 0.00 | 0.00 | 89 | 1016.1 |
| 20260507043442 | 0 | 0 | 0.0 | 0.0 | 0.00 | 0.00 | 0.00 | 90 | 1016.1 |
| 20260507042542 | 0 | 0 | 0.0 | 0.0 | 0.00 | 0.00 | 0.00 | 91 | 1016.0 |
| 20260507041853 | -1 | 0 | 0.0 | 0.0 | 0.00 | 0.00 | 0.00 | 92 | 1016.0 |
| 20260507040742 | -1 | 0 | 0.0 | 0.0 | 0.00 | 0.00 | 0.00 | 92 | 1016.1 |
| 20260507035842 | -2 | 0 | 0.0 | 0.0 | 0.00 | 0.00 | 0.00 | 92 | 1016.1 |
| 20260507034942 | -2 | 0 | 0.0 | 0.0 | 0.00 | 0.00 | 0.00 | 91 | 1016.1 |
| 20260507034042 | -2 | 0 | 0.0 | 0.0 | 0.00 | 0.00 | 0.00 | 91 | 1016.2 |
| 20260507033142 | -2 | 0 | 0.0 | 0.0 | 0.00 | 0.00 | 0.00 | 91 | 1016.1 |
| 20260507032452 | -3 | 0 | 0.0 | 0.0 | 0.00 | 0.00 | 0.00 | 91 | 1016.1 |
| 20260507031554 | -3 | 0 | 0.0 | 0.0 | 0.00 | 0.00 | 0.00 | 90 | 1016.0 |
| 20260507030442 | -3 | 0 | 0.0 | 0.0 | 0.00 | 0.00 | 0.00 | 89 | 1016.0 |
| 20260507025542 | -3 | 0 | 0.0 | 0.0 | 0.00 | 0.00 | 0.00 | 89 | 1015.9 |
| 20260507024642 | -3 | 0 | 0.0 | 0.0 | 0.00 | 0.00 | 0.00 | 89 | 1015.8 |
| 20260507023743 | -3 | 0 | 0.0 | 0.0 | 0.00 | 0.00 | 0.00 | 88 | 1015.7 |
| 20260507022842 | -3 | 0 | 0.0 | 0.0 | 0.00 | 0.00 | 0.00 | 86 | 1015.6 |
| 20260507021943 | -3 | 0 | 0.0 | 0.0 | 0.00 | 0.00 | 0.00 | 86 | 1015.6 |
| 20260507021042 | -3 | 0 | 0.0 | 0.0 | 0.00 | 0.00 | 0.00 | 86 | 1015.4 |
| 20260507020142 | -3 | 0 | 0.0 | 0.0 | 0.00 | 0.00 | 0.00 | 86 | 1015.4 |
| 20260507015242 | -3 | 0 | 0.0 | 0.0 | 0.00 | 0.00 | 0.00 | 86 | 1015.4 |
| 20260507014342 | -2 | 0 | 0.0 | 0.0 | 0.00 | 0.00 | 0.00 | 86 | 1015.3 |
| 20260507013655 | -2 | 0 | 0.0 | 0.0 | 0.00 | 0.00 | 0.00 | 86 | 1015.2 |
| 20260507012752 | -2 | 0 | 0.0 | 0.0 | 0.00 | 0.00 | 0.00 | 86 | 1015.1 |
| 20260507011642 | -2 | 0 | 0.0 | 0.0 | 0.00 | 0.00 | 0.00 | 85 | 1015.0 |
| 20260507010742 | -2 | 0 | 0.0 | 0.0 | 0.00 | 0.00 | 0.00 | 86 | 1015.1 |
| 20260507005842 | -2 | 0 | 0.0 | 0.0 | 0.00 | 0.00 | 0.00 | 87 | 1015.0 |
| 20260507004942 | -2 | 0 | 0.0 | 0.0 | 0.00 | 0.00 | 0.00 | 87 | 1015.0 |
| 20260507004043 | -2 | 0 | 0.0 | 0.0 | 0.00 | 0.00 | 0.00 | 86 | 1014.9 |
| 20260507003143 | -2 | 0 | 0.0 | 0.0 | 0.00 | 0.00 | 0.00 | 85 | 1014.9 |
| 20260507002242 | -2 | 0 | 0.0 | 0.0 | 0.00 | 0.00 | 0.00 | 85 | 1014.9 |
| 20260507001342 | -2 | 0 | 0.0 | 0.0 | 0.00 | 0.00 | 0.00 | 82 | 1014.9 |
| 20260507000442 | -2 | 0 | 0.0 | 0.0 | 0.00 | 0.00 | 0.00 | 82 | 1014.8 |
| 20260506235542 | -2 | 0 | 0.0 | 0.0 | 0.00 | 0.00 | 0.00 | 82 | 1014.8 |
| 20260506234642 | -2 | 0 | 0.0 | 0.0 | 0.00 | 0.00 | 0.00 | 82 | 1014.7 |
| 20260506233742 | -1 | 0 | 0.0 | 0.0 | 0.00 | 0.00 | 0.00 | 82 | 1014.7 |
| 20260506232844 | -1 | 0 | 0.0 | 0.0 | 0.00 | 0.00 | 0.00 | 82 | 1014.7 |
| 20260506232155 | -1 | 0 | 0.0 | 0.0 | 0.00 | 0.00 | 0.00 | 80 | 1014.6 |
| 20260506231042 | -1 | 0 | 0.0 | 0.0 | 0.00 | 0.00 | 0.00 | 79 | 1014.5 |
| 20260506225242 | -1 | 0 | 0.0 | 0.0 | 0.00 | 0.00 | 0.00 | 78 | 1014.4 |
| 20260506224342 | -1 | 0 | 0.0 | 0.0 | 0.00 | 0.00 | 0.00 | 79 | 1014.3 |
| 20260506223653 | -1 | 0 | 0.0 | 0.0 | 0.00 | 0.00 | 0.00 | 77 | 1014.2 |
| 20260506222542 | 0 | 0 | 0.0 | 0.0 | 0.00 | 0.00 | 0.00 | 77 | 1014.2 |
| 20260506221643 | 0 | 0 | 0.0 | 0.0 | 0.00 | 0.00 | 0.00 | 76 | 1014.1 |
| 20260506220742 | 0 | 0 | 0.0 | 0.0 | 0.00 | 0.00 | 0.00 | 76 | 1014.0 |
| 20260506215842 | 0 | 0 | 0.0 | 0.0 | 0.00 | 0.00 | 0.00 | 76 | 1014.0 |
| 20260506214942 | 0 | 0 | 0.0 | 0.0 | 0.00 | 0.00 | 0.00 | 74 | 1013.9 |
| 20260506214042 | 0 | 0 | 0.0 | 0.0 | 0.00 | 0.00 | 0.00 | 74 | 1013.8 |
| 20260506213142 | 0 | 0 | 0.0 | 0.0 | 0.00 | 0.00 | 0.00 | 74 | 1013.8 |
| 20260506212243 | 0 | 0 | 0.0 | 0.0 | 0.00 | 0.00 | 0.00 | 73 | 1013.8 |
| 20260506211343 | 1 | 0 | 0.0 | 0.0 | 0.00 | 0.00 | 0.00 | 72 | 1013.7 |
| 20260506210442 | 1 | 0 | 0.0 | 0.0 | 0.00 | 0.00 | 0.00 | 71 | 1013.7 |
| 20260506205542 | 1 | 0 | 0.0 | 0.0 | 0.00 | 0.00 | 0.00 | 70 | 1013.6 |
| 20260506204642 | 2 | 0 | 0.0 | 0.0 | 0.00 | 0.00 | 0.00 | 69 | 1013.5 |
| 20260506203953 | 2 | 0 | 0.0 | 0.0 | 0.00 | 0.00 | 0.00 | 68 | 1013.5 |
| 20260506202842 | 2 | 0 | 0.0 | 0.0 | 0.00 | 0.00 | 0.00 | 67 | 1013.5 |
| 20260506201942 | 3 | 0 | 0.0 | 0.0 | 0.00 | 0.00 | 0.00 | 65 | 1013.6 |
| 20260506201042 | 3 | 0 | 0.0 | 0.0 | 0.00 | 0.00 | 0.00 | 64 | 1013.5 |
| 20260506200142 | 3 | 0 | 0.0 | 0.0 | 0.00 | 0.00 | 0.00 | 62 | 1013.4 |
| 20260506195242 | 4 | 0 | 0.0 | 0.0 | 0.00 | 0.00 | 0.00 | 61 | 1013.3 |
| 20260506194343 | 5 | 0 | 0.0 | 0.0 | 0.00 | 0.00 | 0.00 | 59 | 1013.2 |
| 20260506193443 | 5 | 0 | 0.0 | 0.0 | 0.00 | 0.00 | 0.00 | 58 | 1013.2 |
| 20260506192543 | 5 | 0 | 0.0 | 0.0 | 0.00 | 0.00 | 0.00 | 56 | 1013.1 |
| 20260506191643 | 6 | 0 | 0.0 | 0.0 | 0.00 | 0.00 | 0.00 | 55 | 1013.0 |
| 20260506190742 | 6 | 0 | 0.0 | 0.0 | 0.00 | 0.00 | 0.00 | 53 | 1013.0 |
| 20260506185842 | 6 | 0 | 0.0 | 0.0 | 0.00 | 0.00 | 0.00 | 52 | 1012.9 |
| 20260506184942 | 7 | 0 | 0.0 | 0.0 | 0.00 | 0.00 | 0.00 | 50 | 1012.8 |
| 20260506184043 | 7 | 0 | 0.0 | 0.0 | 0.00 | 0.00 | 0.00 | 50 | 1012.7 |
| 20260506183142 | 7 | 0 | 0.0 | 0.0 | 0.00 | 0.00 | 0.00 | 49 | 1012.7 |
| 20260506182242 | 7 | 0 | 0.0 | 0.0 | 0.00 | 0.00 | 0.00 | 48 | 1012.6 |
| 20260506181343 | 7 | 0 | 0.0 | 0.0 | 0.00 | 0.00 | 0.00 | 47 | 1012.4 |
| 20260506180442 | 8 | 0 | 0.0 | 3.2 | 0.00 | 0.00 | 0.00 | 47 | 1012.3 |
| 20260506175542 | 8 | 0 | 0.0 | 0.0 | 0.00 | 0.00 | 0.00 | 46 | 1012.3 |
| 20260506174642 | 8 | 0 | 0.0 | 1.6 | 0.00 | 0.00 | 0.00 | 45 | 1012.1 |
| 20260506173742 | 8 | 0 | 0.0 | 3.2 | 0.00 | 0.00 | 0.00 | 44 | 1012.1 |
| 20260506173052 | 8 | 0 | 0.0 | 3.2 | 0.00 | 0.00 | 0.00 | 42 | 1012.0 |
| 20260506171942 | 8 | 0 | 0.0 | 6.4 | 0.00 | 0.00 | 0.00 | 39 | 1011.9 |
| 20260506171043 | 9 | 0 | 0.0 | 1.6 | 0.00 | 0.00 | 0.00 | 36 | 1011.7 |
| 20260506170142 | 9 | 0 | 0.0 | 6.4 | 0.00 | 0.00 | 0.00 | 34 | 1011.7 |
| 20260506165242 | 10 | 268 | 1.6 | 9.7 | 0.00 | 0.00 | 0.00 | 33 | 1011.6 |
| 20260506164342 | 10 | 253 | 1.6 | 11.3 | 0.00 | 0.00 | 0.00 | 31 | 1011.5 |
| 20260506163657 | 10 | 244 | 4.8 | 19.3 | 0.00 | 0.00 | 0.00 | 31 | 1011.4 |
| 20260506162542 | 10 | 273 | 1.6 | 11.3 | 0.00 | 0.00 | 0.00 | 30 | 1011.3 |
| 20260506161642 | 10 | 260 | 3.2 | 17.7 | 0.00 | 0.00 | 0.00 | 30 | 1011.3 |
| 20260506160742 | 10 | 237 | 1.6 | 17.7 | 0.00 | 0.00 | 0.00 | 29 | 1011.1 |
| 20260506155842 | 10 | 258 | 3.2 | 16.1 | 0.00 | 0.00 | 0.00 | 29 | 1011.1 |
| 20260506154942 | 10 | 260 | 6.4 | 19.3 | 0.00 | 0.00 | 0.00 | 29 | 1011.1 |
| 20260506154043 | 10 | 244 | 6.4 | 20.9 | 0.00 | 0.00 | 0.00 | 30 | 1011.0 |
| 20260506153142 | 10 | 247 | 8.0 | 24.1 | 0.00 | 0.00 | 0.00 | 31 | 1011.0 |
| 20260506152242 | 10 | 233 | 6.4 | 24.1 | 0.00 | 0.00 | 0.00 | 30 | 1010.9 |
| 20260506151342 | 10 | 239 | 3.2 | 22.5 | 0.00 | 0.00 | 0.00 | 30 | 1010.8 |
| 20260506150442 | 10 | 208 | 4.8 | 20.9 | 0.00 | 0.00 | 0.00 | 30 | 1010.8 |
| 20260506145542 | 10 | 234 | 8.0 | 25.7 | 0.00 | 0.00 | 0.00 | 30 | 1010.8 |
| 20260506144642 | 11 | 227 | 8.0 | 24.1 | 0.00 | 0.00 | 0.00 | 29 | 1010.8 |
| 20260506143742 | 10 | 317 | 1.6 | 12.9 | 0.00 | 0.00 | 0.00 | 31 | 1010.6 |
| 20260506142842 | 10 | 268 | 1.6 | 16.1 | 0.00 | 0.00 | 0.00 | 33 | 1010.6 |
| 20260506142157 | 10 | 232 | 3.2 | 16.1 | 0.00 | 0.00 | 0.00 | 32 | 1010.6 |
| 20260506141042 | 10 | 254 | 4.8 | 20.9 | 0.00 | 0.00 | 0.00 | 33 | 1010.6 |
| 20260506140142 | 11 | 238 | 8.0 | 25.7 | 0.00 | 0.00 | 0.00 | 31 | 1010.6 |
| 20260506135242 | 11 | 238 | 3.2 | 16.1 | 0.00 | 0.00 | 0.00 | 31 | 1010.5 |
| 20260506134342 | 10 | 207 | 1.6 | 9.7 | 0.00 | 0.00 | 0.00 | 36 | 1010.4 |
| 20260506133443 | 10 | 227 | 4.8 | 19.3 | 0.00 | 0.00 | 0.00 | 34 | 1010.5 |
| 20260506132543 | 10 | 238 | 3.2 | 16.1 | 0.00 | 0.00 | 0.00 | 34 | 1010.5 |
| 20260506131643 | 11 | 237 | 8.0 | 20.9 | 0.00 | 0.00 | 0.00 | 32 | 1010.4 |
| 20260506130742 | 11 | 213 | 9.7 | 20.9 | 0.00 | 0.00 | 0.00 | 33 | 1010.2 |
| 20260506125844 | 11 | 225 | 9.7 | 25.7 | 0.00 | 0.00 | 0.00 | 32 | 1010.2 |
| 20260506124942 | 11 | 230 | 8.0 | 27.4 | 0.00 | 0.00 | 0.00 | 31 | 1010.2 |
| 20260506124043 | 10 | 271 | 3.2 | 17.7 | 0.00 | 0.00 | 0.00 | 35 | 1010.1 |
| 20260506123355 | 10 | 253 | 4.8 | 17.7 | 0.00 | 0.00 | 0.00 | 34 | 1010.2 |
| 20260506122242 | 9 | 261 | 6.4 | 22.5 | 0.00 | 0.00 | 0.00 | 35 | 1010.3 |
| 20260506121342 | 10 | 236 | 6.4 | 25.7 | 0.00 | 0.00 | 0.00 | 33 | 1010.2 |
| 20260506120657 | 10 | 227 | 4.8 | 25.7 | 0.00 | 0.00 | 0.00 | 34 | 1010.1 |
| 20260506115542 | 10 | 280 | 3.2 | 12.9 | 0.00 | 0.00 | 0.00 | 34 | 1010.0 |
| 20260506114643 | 10 | 259 | 3.2 | 16.1 | 0.00 | 0.00 | 0.00 | 34 | 1010.0 |
| 20260506113744 | 10 | 240 | 4.8 | 17.7 | 0.00 | 0.00 | 0.00 | 38 | 1010.0 |
| 20260506112842 | 9 | 252 | 1.6 | 14.5 | 0.00 | 0.00 | 0.00 | 36 | 1009.8 |
| 20260506111942 | 9 | 260 | 3.2 | 14.5 | 0.00 | 0.00 | 0.00 | 38 | 1009.9 |
| 20260506111043 | 10 | 246 | 6.4 | 20.9 | 0.00 | 0.00 | 0.00 | 36 | 1009.8 |
| 20260506110143 | 10 | 230 | 6.4 | 33.8 | 0.00 | 0.00 | 0.00 | 35 | 1009.9 |
| 20260506105243 | 10 | 200 | 11.3 | 25.7 | 0.00 | 0.00 | 0.00 | 37 | 1009.7 |
| 20260506104343 | 10 | 201 | 11.3 | 30.6 | 0.00 | 0.00 | 0.00 | 35 | 1009.5 |
| 20260506103442 | 10 | 216 | 11.3 | 32.2 | 0.00 | 0.00 | 0.00 | 35 | 1009.5 |
| 20260506102542 | 10 | 241 | 4.8 | 19.3 | 0.00 | 0.00 | 0.00 | 37 | 1009.4 |
| 20260506101642 | 10 | 264 | 3.2 | 14.5 | 0.00 | 0.00 | 0.00 | 37 | 1009.4 |
| 20260506100743 | 10 | 226 | 6.4 | 27.4 | 0.00 | 0.00 | 0.00 | 38 | 1009.4 |
| 20260506095843 | 9 | 206 | 8.0 | 22.5 | 0.00 | 0.00 | 0.00 | 40 | 1009.2 |
| 20260506094942 | 8 | 210 | 8.0 | 22.5 | 0.00 | 0.00 | 0.00 | 40 | 1009.2 |
| 20260506094043 | 8 | 223 | 8.0 | 29.0 | 0.00 | 0.00 | 0.00 | 41 | 1009.2 |
| 20260506093142 | 8 | 223 | 11.3 | 29.0 | 0.00 | 0.00 | 0.00 | 41 | 1009.1 |
| 20260506092242 | 8 | 240 | 6.4 | 25.7 | 0.00 | 0.00 | 0.00 | 40 | 1009.1 |
| 20260506091342 | 8 | 243 | 8.0 | 22.5 | 0.00 | 0.00 | 0.00 | 42 | 1009.0 |
| 20260506090443 | 8 | 239 | 8.0 | 22.5 | 0.00 | 0.00 | 0.00 | 41 | 1009.0 |
| 20260506085542 | 8 | 238 | 4.8 | 25.7 | 0.00 | 0.00 | 0.00 | 44 | 1008.8 |
| 20260506084853 | 8 | 257 | 4.8 | 17.7 | 0.00 | 0.00 | 0.00 | 45 | 1008.8 |
| 20260506083742 | 7 | 266 | 3.2 | 12.9 | 0.00 | 0.00 | 0.00 | 46 | 1008.7 |
| 20260506082842 | 7 | 242 | 8.0 | 27.4 | 0.00 | 0.00 | 0.00 | 44 | 1008.7 |
| 20260506082155 | 7 | 247 | 3.2 | 27.4 | 0.00 | 0.00 | 0.00 | 45 | 1008.7 |
| 20260506081042 | 7 | 236 | 6.4 | 22.5 | 0.00 | 0.00 | 0.00 | 45 | 1008.6 |
| 20260506080142 | 7 | 251 | 4.8 | 19.3 | 0.00 | 0.00 | 0.00 | 48 | 1008.5 |
| 20260506072543 | 6 | 240 | 3.2 | 17.7 | 0.00 | 0.00 | 0.00 | 49 | 1008.4 |
| 20260506071642 | 6 | 243 | 8.0 | 22.5 | 0.00 | 0.00 | 0.00 | 50 | 1008.3 |
| 20260506070742 | 6 | 260 | 6.4 | 22.5 | 0.00 | 0.00 | 0.00 | 50 | 1008.2 |